FW7749 Weather Reports


Display with metric or nautical units.
time (UTC)temp
F
wind
direction
speed
MPH
gust
MPH
rain 1hr
in
rain 24hr
in
rain mn
in
humidity
%
barometer
mb
20260505164031 69 0.0 0.0 0.00 0.00 0.00 51 1017.9
20260505163021 69 0.0 0.0 0.00 0.00 0.00 50 1018.1
20260505162021 68 0.0 0.0 0.00 0.00 0.00 51 1018.1
20260505161030 68 0.0 0.0 0.00 0.00 0.00 51 1018.2
20260505153021 67 0.0 0.0 0.00 0.00 0.00 54 1018.1
20260505152034 66 0.0 0.0 0.00 0.00 0.00 54 1018.1
20260505151021 65 0.0 0.0 0.00 0.00 0.00 55 1017.9
20260505124021 56 0.0 0.0 0.00 0.00 0.00 75 1017.9
20260505123021 55 0.0 0.0 0.00 0.00 0.00 76 1017.7
20260505122026 54 0.0 0.0 0.00 0.00 0.00 76 1017.5
20260505121041 52 0.0 0.0 0.00 0.00 0.00 75 1017.5
20260505120101 51 0.0 0.0 0.00 0.00 0.00 75 1017.4
20260505115025 50 0.0 0.0 0.00 0.00 0.00 75 1017.4
20260505114020 49 0.0 0.0 0.00 0.00 0.00 76 1017.2
20260505113029 49 0.0 0.0 0.00 0.00 0.00 77 1017.1
20260505112025 49 0.0 0.0 0.00 0.00 0.00 75 1017.1
20260505111021 48 0.0 0.0 0.00 0.00 0.00 75 1016.8
20260505102021 49 0.0 0.0 0.00 0.00 0.00 76 1016.8
20260505101041 50 0.0 0.0 0.00 0.00 0.00 73 1016.7
20260505100021 50 0.0 0.0 0.00 0.00 0.00 71 1016.6
20260505095020 50 0.0 0.0 0.00 0.00 0.00 71 1016.7
20260505094111 50 0.0 0.0 0.00 0.00 0.00 69 1016.8
20260505093020 51 0.0 0.0 0.00 0.00 0.00 69 1016.9
20260505092039 51 0.0 0.0 0.00 0.00 0.00 69 1016.9
20260505091025 51 0.0 0.0 0.00 0.00 0.00 69 1017.0
20260505090021 52 0.0 0.0 0.00 0.00 0.00 69 1016.9
20260505085050 52 0.0 0.0 0.00 0.00 0.00 69 1016.7
20260505084021 53 0.0 0.0 0.00 0.00 0.00 69 1016.5
20260505083102 53 0.0 0.0 0.00 0.00 0.00 68 1016.5
20260505082036 54 0.0 0.0 0.00 0.00 0.00 70 1016.4
20260505081021 54 0.0 0.0 0.00 0.00 0.00 70 1016.2
20260505080021 54 0.0 0.0 0.00 0.00 0.00 69 1016.2
20260505075040 54 0.0 0.0 0.00 0.00 0.00 69 1015.8
20260505074021 55 0.0 0.0 0.00 0.00 0.00 68 1016.1
20260505073020 55 0.0 0.0 0.00 0.00 0.00 66 1016.0
20260505072020 55 0.0 0.0 0.00 0.00 0.00 64 1016.0
20260505071024 55 0.0 0.0 0.00 0.00 0.00 64 1016.3
20260505070019 56 0.0 0.0 0.00 0.00 0.00 63 1016.3
20260505065040 56 0.0 0.0 0.00 0.00 0.00 63 1016.3
20260505064023 56 0.0 0.0 0.00 0.00 0.00 62 1016.2
20260505063020 57 0.0 0.0 0.00 0.00 0.00 62 1016.2
20260505062020 56 0.0 0.0 0.00 0.00 0.00 62 1016.3
20260505061022 57 0.0 0.0 0.00 0.00 0.00 61 1016.2
20260505060101 58 0.0 0.0 0.00 0.00 0.00 60 1016.1
20260505055047 58 0.0 0.0 0.00 0.00 0.00 59 1016.0
20260505054020 58 0.0 0.0 0.00 0.00 0.00 58 1016.1
20260505053020 59 0.0 0.0 0.00 0.00 0.00 57 1016.1
20260505052026 59 0.0 0.0 0.00 0.00 0.00 58 1016.0
20260505051040 60 0.0 0.0 0.00 0.00 0.00 58 1016.1
20260505041020 63 0.0 0.0 0.00 0.00 0.00 48 1015.6
20260505040028 64 0.0 0.0 0.00 0.00 0.00 46 1015.5
20260505035020 65 0.0 0.0 0.00 0.00 0.00 45 1015.6
20260505034032 66 0.0 0.0 0.00 0.00 0.00 45 1015.7
20260505033040 66 0.0 0.0 0.00 0.00 0.00 45 1015.7
20260505032020 66 0.0 0.0 0.00 0.00 0.00 45 1015.7
20260505031031 66 0.0 0.0 0.00 0.00 0.00 45 1015.8
20260505030020 66 0.0 0.0 0.00 0.00 0.00 45 1015.8
20260505025020 66 310 2.0 2.0 0.00 0.00 0.00 44 1015.8
20260505024120 66 0.0 0.0 0.00 0.00 0.00 45 1015.6
20260505023020 67 31 1.0 2.0 0.00 0.00 0.00 44 1015.9
20260505022035 67 0.0 0.0 0.00 0.00 0.00 44 1015.7
20260505021020 67 0.0 2.0 0.00 0.00 0.00 45 1015.8
20260505020020 67 0.0 1.0 0.00 0.00 0.00 46 1015.7
20260505015020 68 324 1.0 4.0 0.00 0.00 0.00 46 1015.5
20260505014020 68 356 0.0 2.0 0.00 0.00 0.00 45 1015.6
20260505013022 69 0.0 0.0 0.00 0.00 0.00 46 1015.4
20260505012020 68 338 1.0 2.0 0.00 0.00 0.00 45 1015.3
20260505011020 68 0.0 0.0 0.00 0.00 0.00 45 1015.1
20260505010020 68 0.0 0.0 0.00 0.00 0.00 46 1014.8
20260505005020 69 0.0 0.0 0.00 0.00 0.00 45 1014.8
20260505004025 70 0.0 0.0 0.00 0.00 0.00 45 1014.7
20260505003019 70 333 1.0 1.0 0.00 0.00 0.00 44 1014.7
20260505002040 70 0.0 0.0 0.00 0.00 0.00 44 1014.6
20260505001024 71 0.0 0.0 0.00 0.00 0.00 44 1014.5
20260505000020 71 0.0 0.0 0.00 0.00 0.00 44 1014.5
20260504235020 71 0.0 0.0 0.00 0.00 0.00 45 1014.3
20260504234043 72 0.0 0.0 0.00 0.00 0.00 44 1014.4
20260504233020 72 0.0 0.0 0.00 0.00 0.00 43 1014.5
20260504232048 72 0.0 0.0 0.00 0.00 0.00 43 1014.2
20260504231040 73 0.0 0.0 0.00 0.00 0.00 42 1014.5
20260504230020 73 0.0 0.0 0.00 0.00 0.00 42 1014.3
20260504225107 73 0.0 0.0 0.00 0.00 0.00 41 1014.3
20260504224020 74 0.0 0.0 0.00 0.00 0.00 41 1014.4
20260504223031 74 0.0 0.0 0.00 0.00 0.00 41 1014.4
20260504222025 74 0.0 0.0 0.00 0.00 0.00 41 1014.5
20260504221020 75 0.0 0.0 0.00 0.00 0.00 40 1014.6
20260504220030 75 0.0 0.0 0.00 0.00 0.00 40 1014.6
20260504215020 76 0.0 0.0 0.00 0.00 0.00 40 1014.7
20260504214020 77 0.0 0.0 0.00 0.00 0.00 39 1014.7
20260504213120 78 0.0 0.0 0.00 0.00 0.00 40 1014.7
20260504212040 77 0.0 0.0 0.00 0.00 0.00 38 1014.8
20260504211033 77 0.0 0.0 0.00 0.00 0.00 39 1014.8
20260504210020 77 0.0 0.0 0.00 0.00 0.00 39 1014.9
20260504205020 78 0.0 0.0 0.00 0.00 0.00 40 1015.1
20260504204032 76 0.0 0.0 0.00 0.00 0.00 41 1015.2
20260504203020 77 0.0 0.0 0.00 0.00 0.00 43 1015.3
20260504202040 76 0.0 0.0 0.00 0.00 0.00 42 1015.4
20260504201120 76 0.0 0.0 0.00 0.00 0.00 42 1015.6
20260504200020 76 0.0 0.0 0.00 0.00 0.00 42 1015.7
20260504195039 76 0.0 0.0 0.00 0.00 0.00 44 1016.0
20260504194040 75 0.0 0.0 0.00 0.00 0.00 44 1016.0
20260504193020 75 0.0 0.0 0.00 0.00 0.00 44 1016.0
20260504192036 75 0.0 0.0 0.00 0.00 0.00 43 1016.3
20260504191020 74 0.0 0.0 0.00 0.00 0.00 43 1016.6
20260504190023 73 0.0 0.0 0.00 0.00 0.00 44 1016.6
20260504185020 73 0.0 0.0 0.00 0.00 0.00 45 1016.6
20260504184040 73 0.0 0.0 0.00 0.00 0.00 44 1016.8
20260504183022 72 0.0 0.0 0.00 0.00 0.00 45 1016.8
20260504182020 72 0.0 0.0 0.00 0.00 0.00 44 1017.0
20260504181046 72 0.0 0.0 0.00 0.00 0.00 46 1017.1
20260504180020 71 0.0 0.0 0.00 0.00 0.00 46 1017.3
20260504175100 70 0.0 0.0 0.00 0.00 0.00 45 1017.5
20260504174025 70 0.0 0.0 0.00 0.00 0.00 46 1017.6
20260504173019 69 0.0 0.0 0.00 0.00 0.00 47 1017.7
20260504172020 69 0.0 0.0 0.00 0.00 0.00 47 1017.7
20260504171024 68 0.0 0.0 0.00 0.00 0.00 48 1017.9